sat.trackr.live / text

‹ back to catalog

STARLINK-34507

NORAD 64437 · 2025-129AB

PAYLOAD ACTIVE UNKNOWN

§ Identity

Operator
Country
US
Launch date
2025-06-17
Launch site
AFWTR
Launch vehicle
Mass (kg)
RCS (m²)

Purposes: comms

External: N2YO · Heavens-Above · Gunter

§ Orbital elements

Epoch: 2026-05-25T05:14:39.079968Z

Period
96.11 min
Inclination
70.0006°
Eccentricity
0.0003411
Mean motion
14.98335377 rev/d
Perigee alt
569.7 km
Apogee alt
574.4 km
Semi-major
6,950.2 km
B*
7.5120e-4
RAAN
241.3710°
Arg perigee
272.1531°
Mean anomaly
87.9237°
Rev number
5,275

§ Raw data

STARLINK-345071 64437U 25129AB  26145.21850787  .00008883  00000+0  75120-3 0  99932 64437  70.0006 241.3710 0003411 272.1531  87.9237 14.98335377 52752

JSON: /api/v1/satellites/64437 · /tle

For live sub-satellite position, see the globe view (requires WebGL).

§ Visibility from observer

Set your observer location to see the next 7 days of passes ≥ 10°. The values pass through the URL so the page stays shareable.

No JS? Fill the form by hand. The geolocation button needs JavaScript.